Date,TemperatureHighF,TemperatureAvgF,TemperatureLowF,DewpointHighF,DewpointAvgF,DewpointLowF,HumidityHigh,HumidityAvg,HumidityLow,PressureMaxIn,PressureMinIn,WindSpeedMaxMPH,WindSpeedAvgMPH,GustSpeedMaxMPH,PrecipitationSumIn
2013-3-1,31.2,26.7,21.7,25.1,20.7,16.1,86,78,69,30.42,30.27,21,9,24,0.00
2013-3-2,38.2,26.7,13.7,28.2,21.0,10.8,91,79,58,30.41,30.13,11,3,11,0.00
2013-3-3,41.3,33.9,27.0,34.3,29.0,24.1,89,82,74,30.13,29.72,19,8,22,0.00
2013-3-4,41.4,34.7,28.3,33.7,29.8,22.5,91,82,65,30.07,29.66,21,6,23,0.00
2013-3-5,34.8,28.6,23.8,24.5,21.0,17.8,82,73,62,30.45,30.05,33,15,35,0.00
2013-3-6,39.7,28.7,21.1,26.3,22.0,17.0,85,76,57,30.48,30.26,16,5,17,0.00
2013-3-7,52.5,35.5,24.3,34.4,27.6,20.7,88,75,48,30.30,30.10,21,8,22,0.00
2013-3-8,56.0,40.5,28.2,42.3,33.8,25.1,91,78,58,30.20,29.91,21,7,21,0.21
2013-3-9,57.2,46.1,35.5,54.6,43.6,33.7,94,91,83,29.91,29.51,26,8,28,0.11
2013-3-10,35.5,27.9,23.0,33.6,26.4,21.5,95,94,92,30.01,29.70,30,15,32,0.01
2013-3-11,31.4,24.0,19.7,24.8,20.8,17.5,94,87,74,30.06,29.94,23,8,25,0.08
2013-3-12,34.2,28.8,19.5,26.7,23.4,16.5,91,80,72,30.38,30.06,28,9,28,0.01
2013-3-13,36.9,26.7,14.1,28.4,21.6,11.7,96,81,69,30.50,30.28,10,2,11,0.00
2013-3-14,43.7,33.9,31.0,36.6,28.2,25.0,84,79,73,30.28,30.08,9,2,11,0.00
2013-3-19,51.7,35.3,22.1,31.9,23.3,17.2,82,63,36,30.37,30.12,22,6,26,0.00
2013-3-20,37.5,26.2,17.6,19.1,14.1,8.9,79,61,42,30.45,30.14,20,8,22,0.00
2013-3-21,32.3,27.2,21.7,21.9,18.0,14.5,85,69,50,30.15,29.95,14,6,15,0.00
2013-3-22,35.0,31.5,27.8,24.9,23.0,20.4,83,71,60,30.06,29.99,10,4,12,0.00
2013-3-23,37.7,32.3,29.2,30.0,26.9,23.7,93,81,60,30.14,30.04,18,7,20,0.00
2013-3-24,29.9,27.2,24.7,28.0,22.9,19.7,93,84,71,30.14,30.08,25,13,26,0.00
2013-3-25,31.2,27.6,24.9,25.8,23.1,20.2,90,83,71,30.40,30.13,25,12,26,0.00
2013-3-26,44.0,29.1,17.1,26.2,20.7,13.4,92,72,47,30.43,30.26,13,2,22,0.00
2013-3-27,52.6,37.3,23.5,34.7,27.9,20.4,89,71,48,30.30,30.18,20,6,20,0.00
2013-3-28,58.9,43.6,26.1,37.6,32.2,23.6,92,67,39,30.27,30.14,11,2,12,0.00
2013-3-29,69.8,52.5,29.0,43.9,35.4,25.4,91,57,30,30.22,30.01,18,5,20,0.00
2013-3-30,65.2,55.1,47.8,56.2,46.7,37.5,95,76,43,30.07,29.88,21,6,21,0.44
2013-3-31,58.1,47.1,33.6,43.9,35.8,28.4,94,68,34,30.16,29.92,24,8,24,0.06